Regional Weather Roundup
Issued by NWS

Home | Current Version | Previous Version | Graphics & Text | Print | Product List | Glossary On
Versions: 1 2 3 4 5 6 7 8 9 10 11 12 13 14 15 16 17 18 19 20 21 22 23 24 25 26 27 28 29 30 31 32 33 34 35 36 37 38 39 40 41 42 43 44 45 46 47 48 49 50
000
ASUS43 KIND 020959
RWRIN

WEATHER ROUNDUP FOR INDIANA
NATIONAL WEATHER SERVICE INDIANAPOLIS IN
600 AM EDT THU JUL 02 2015

NOTE: "FAIR" INDICATES FEW OR NO CLOUDS BELOW 12,000 FEET WITH NO
SIGNIFICANT WEATHER AND/OR OBSTRUCTIONS TO VISIBILITY.

* - STATION DOES NOT REPORT WEATHER SUCH AS PRECIPITATION OR FOG.

+ - STATION NOT QUALITY CONTROLLED BY THE NATIONAL WEATHER SERVICE.
    USE DATA WITH CAUTION...ESPECIALLY DEWPOINT AND RELATIVE
    HUMIDITY OBSERVATIONS.

INZ001>003-010>013-019-020-021100-
NORTHWEST INDIANA

CITY           SKY/WX    TMP DP  RH WIND       PRES   REMARKS
RENSSELAER +   MOCLDY    55  55 100 N7        29.94F

$$

LMZ046-743>745-021100-
SOUTHERN LAKE MICHIGAN

STATION/POSITION TIME  TEMP    WIND        PRES    WAVE
                       AIR SEA DIR/SP/G            HT
                 (UTC) (F)     (DEG/KT/KT) (MB)    (FT)
BURNS HARBOR     0900   60      50/ 13/ 15 1015.2F
MICHIGAN CITY    0900   58      20/ 12/ 13   N/A
5NW MICH CITY    0900   60 64   70/ 12/ 14   N/A     3

$$

INZ004-005-014>016-021>024-021100-
NORTH CENTRAL INDIANA

CITY           SKY/WX    TMP DP  RH WIND       PRES   REMARKS
GOSHEN         MOCLDY    55  53  93 N7        29.96R
SOUTH BEND     PTCLDY    54  52  93 NE7       29.97S

$$

INZ006>009-017-018-025>027-021100-
NORTHEAST INDIANA

CITY           SKY/WX    TMP DP  RH WIND       PRES   REMARKS
ANGOLA *+        N/A     54  39  58 NE5       29.95S
FORT WAYNE     CLOUDY    59  56  89 N5        29.93F

$$

INZ028-029-035-036-043>045-051>053-021100-
WEST CENTRAL INDIANA

CITY           SKY/WX    TMP DP  RH WIND       PRES   REMARKS
CRAWFORDSVL +  CLOUDY    57  50  77 NE7       29.92S
GREENCASTLE +  CLOUDY    61  50  67 NE6       29.91S
LAFAYETTE      CLOUDY    57  53  86 NE8       29.93S
TERRE HAUTE    LGT RAIN  63  54  72 NE7       29.89S

$$

INZ030>032-037>040-046>048-054>057-064-065-021100-
CENTRAL INDIANA

CITY           SKY/WX    TMP DP  RH WIND       PRES   REMARKS
GREENWOOD *+   CLOUDY    63  55  77 N6        29.92R
INDIANAPOLIS   CLOUDY    62  54  74 NE9       29.89R
-EAGLE CREEK   CLOUDY    62  55  77 NE5       29.91R
KOKOMO *+      CLOUDY    59  54  82 NE7       29.92S
MT COMFORT *+  MOCLDY    61 N/A N/A N3        29.91S
SHELBYVILLE    PTCLDY    64  60  87 NE7       29.89R

$$

INZ033-034-041-042-049-050-058-059-021100-
EAST CENTRAL INDIANA

CITY           SKY/WX    TMP DP  RH WIND       PRES   REMARKS
MUNCIE         CLOUDY    62  56  80 NE5       29.92R

$$

INZ060-061-067>069-081>083-085>088-021100-
SOUTHWEST INDIANA

CITY           SKY/WX    TMP DP  RH WIND       PRES   REMARKS
EVANSVILLE     CLOUDY    72  70  93 SW9       29.86S
HUNTINGBURG *+ CLOUDY    72  68  88 S6        29.86S

$$

INZ062-063-066-070>080-084-089>092-021100-
SOUTH CENTRAL AND SOUTHEAST INDIANA

CITY           SKY/WX    TMP DP  RH WIND       PRES   REMARKS
BLOOMINGTON    CLOUDY    66  63  90 NE7       29.89R
MADISON *+     CLOUDY    70  66  88 CALM      29.91R
SEYMOUR +      CLOUDY    70  70 100 CALM      29.88R FOG

$$



USA.gov is the U.S. government's official web portal to all federal, state and local government web resources and services.